Overview Statistics Trail Chart Weather Telemetry Raw packets
 

This is the latest recevied weather packets stored in our database for station/object KB9HUO. If no packets are shown the sender has not sent any weather packets the latest 10 day(s).

<< 57 58 59 60 61 62 63 >>
Time Temp. Humidity Pressure Rain* Wind** Luminosity Snow
1788278832 32.78° C 66% 1020.1 hPa 0 mm - 627 W/m² -
1788278527 32.78° C 61% 1020.1 hPa 0 mm - 621 W/m² -
1788278226 32.78° C 64% 1020.1 hPa 0 mm - 621 W/m² -
1788277921 32.78° C 63% 1020.1 hPa 0 mm - 616 W/m² -
1788277616 32.22° C 63% 1020.2 hPa 0 mm - 594 W/m² -
1788277310 31.67° C 64% 1020.1 hPa 0 mm - 585 W/m² -
1788277006 31.67° C 65% 1020.4 hPa 0 mm - 561 W/m² -
1788276705 31.67° C 66% 1020.1 hPa 0 mm - 538 W/m² -
1788276400 31.11° C 67% 1020.2 hPa 0 mm - 514 W/m² -
1788276098 31.67° C 68% 1020.3 hPa 0 mm - 498 W/m² -
1788275794 31.11° C 69% 1020.2 hPa 0 mm - 86 W/m² -
1788275494 31.11° C 70% 1020.3 hPa 0 mm - 82 W/m² -
1788275193 30.56° C 72% 1020.2 hPa 0 mm - 93 W/m² -
1788274892 30° C 69% 1020 hPa 0 mm - 161 W/m² -
1788274590 30° C 70% 1020.1 hPa 0 mm - 159 W/m² -
1788274289 30° C 71% 1020.4 hPa 0 mm - 81 W/m² -
1788273985 30° C 72% 1020.1 hPa 0 mm - 69 W/m² -
1788273675 29.44° C 72% 1020.3 hPa 0 mm - 57 W/m² -
1788273370 29.44° C 73% 1020.3 hPa 0 mm - 55 W/m² -
1788273067 29.44° C 75% 1020.2 hPa 0 mm - 54 W/m² -
1788272762 28.89° C 76% 1020.2 hPa 0 mm - 68 W/m² -
1788272461 28.89° C 75% 1020.3 hPa 0 mm - 53 W/m² -
1788272156 28.33° C 77% 1020.3 hPa 0 mm - 50 W/m² -
1788271850 28.33° C 77% 1020.2 hPa 0 mm - 49 W/m² -
1788271555 27.78° C 77% 1020.5 hPa 0 mm - 47 W/m² -

* Rain latest hour (hover to see other rain measurements)
** Current wind speed in m/s (hover to see current wind gust speed)